User: anonymous   Login
Location: Hurecourt
(47.9030°N, 6.0653°E)
Time: 08:41:36
(UTC+00:00)
Language:

IRS-1D - Orbit

View from above orbital plane
View from above orbital plane
View from above satellite
View from above satellite

Ground track
Ground track

The orbit data is extracted from the following two-line orbital elements,

1 24971U 97057A   20265.85057727 -.00000016  00000-0  10215-4 0  9998
2 24971  98.5701 209.7051 0052533 286.9431  72.5999 14.34002200202348
Epoch (UTC): 21 September 2020 20:24:49
Eccentricity: 0.0052533
inclination: 98.5701°
perigee height: 741 km
apogee height: 816 km
right ascension of ascending node: 209.7051°
argument of perigee: 286.9431°
revolutions per day: 14.34002200
mean anomaly at epoch: 72.5999°
orbit number at epoch: 20234

The dashed part of the orbit path shows where the satellite is in the earth's shadow,  

DLR